Regional Weather Roundup
Issued by NWS

Home | Current Version | Previous Version | Graphics & Text | Print | Product List | Glossary On
Versions: 1 2 3 4 5 6 7 8 9 10 11 12 13 14 15 16 17 18 19 20 21 22 23 24 25 26 27 28 29 30 31 32 33 34 35 36 37 38 39 40 41 42 43 44 45 46 47 48 49 50
000
ASUS45 KSLC 161510
RWRUT

UTAH REGIONAL WEATHER ROUNDUP
NATIONAL WEATHER SERVICE SALT LAKE CITY UT
800 AM MST SAT DEC 16 2017

UTZ001>011-023>025-161600-

NORTHERN UTAH

CITY           SKY/WX    TMP DP  RH WIND       PRES   REMARKS
BRIGHAM CITY   CLOUDY    32  29  90 CALM      29.91S
HILL AFB       MIX PCPN  30  27  86 SE3       29.88S
LOGAN          LGT SNOW  32  27  81 NE6       29.90F VSB 3/4 WCI  26
OGDEN          LGT SNOW  31  28  89 CALM      29.89R FOG
SALT LAKE CITY CLOUDY    32  29  88 CALM      29.89F FOG
TOOELE VALLEY  CLOUDY    30  27  86 SE3       29.90S FOG
WENDOVER       CLOUDY    29  22  75 W3        29.93R
HEBER CITY       N/A     27  14  59 CALM      29.82S
WEST JORDAN    CLOUDY    30  29  95 SW5       29.89S WCI  25

$$

UTZ011>015-024>027-161600-

CENTRAL/NORTHEAST UTAH

CITY           SKY/WX    TMP DP  RH WIND       PRES   REMARKS
PROVO AIRPORT  MOCLDY    25  22  88 E3        29.89R
MOAB/CANYONLAN CLOUDY    26   9  48 CALM      29.85F
DELTA          MOCLDY    23  19  86 CALM      29.85S
PRICE          CLOUDY    25  13  60 W3        29.85R
ROOSEVELT      CLOUDY    25  18  74 SW3       29.88F
VERNAL         CLOUDY    24  16  71 CALM      29.85S

$$

UTZ013>016-019>022-027-161600-

SOUTHERN UTAH

CITY           SKY/WX    TMP DP  RH WIND       PRES   REMARKS
BRYCE CANYON   CLOUDY    22   2  42 W5        29.84F WCI  16
CEDAR CITY     CLOUDY    29   3  33 SE5       29.79S WCI  24
MILFORD        CLOUDY    30  17  58 N15       29.84R WCI  19
ST GEORGE      PTSUNNY   35  11  36 CALM      29.83S
HANKSVILLE     CLOUDY    21   9  58 E3        29.90F
BLANDING         N/A     29   8  41 NW5       29.96F WCI  24

$$

REGIONAL REPORTS     COLORADO/ARIZONA

CITY           SKY/WX    TMP DP  RH WIND       PRES   REMARKS
CRAIG, CO      CLOUDY    11   7  84 CALM      29.86F
GRAND JUNCTION CLOUDY    24   9  52 E5        29.87F WCI  18
RIFLE, CO      CLOUDY    19   8  62 S3        29.90F
MONTROSE, CO   CLOUDY    22   9  57 SE8       29.90F WCI  12
CORTEZ, CO     CLOUDY    15   4  61 NE8       29.90F WCI   4
COLORADO CITY    N/A     28   1  31 CALM      29.85S
PAGE, AZ       CLOUDY    34  13  41 W3        29.84S
GRAND CANYON   CLOUDY    22  -7  27 NE3       29.86S
KINGMAN, AZ    CLOUDY    43   4  19 E6        29.80S
FLAGSTAFF, AZ  CLOUDY    28   3  34 CALM      29.87F

$$

REGIONAL REPORTS    NEVADA/IDAHO/WYOMING

CITY           SKY/WX    TMP DP  RH WIND       PRES   REMARKS
LAS VEGAS, NV  CLOUDY    46  17  31 S7        29.78R
ELY, NY        LGT SNOW  32  31  96 NE10      29.87S WCI  24
ELKO, NV       CLOUDY    34  25  69 N7        29.96R WCI  28
POCATELLO, ID  LGT SNOW  25  23  92 SW10      29.97R FOG     WCI  15
BURLEY, ID     CLOUDY    29  25  85 W14       29.98R WCI  18
FORT BRIDGER,  CLOUDY    30  23  76 N7        29.87S WCI  23
EVANSTON, WY   NOT AVBL
ROCK SPRINGS,  CLOUDY    28  18  66 NW5       29.83F WCI  23

$$



USA.gov is the U.S. government's official web portal to all federal, state and local government web resources and services.